Location: Holiday Acres Laynes 2 Mobile Home Park
(26.7249°N, 81.8671°W)
Time: 13:17:12
(UTC+00:00)

Cosmos 1633 Rocket - Pass Details

Date: 25 November 2020
Orbit: 607 x 624 km, 82.5° (Epoch: 23 January)

Event Time Altitude Azimuth Distance (km) Brightness Sun altitude
Rises 22:59:01 0° 13° (NNE) 2,882 6.2 -6.0°
Reaches altitude 10° 23:01:42 10° 29° (NNE) 1,970 5.2 -6.5°
Maximum altitude 23:05:01 21° 79° (E) 1,377 4.2 -7.2°
Drops below altitude 10° 23:08:19 10° 129° (SE) 1,956 5.3 -7.9°
Sets 23:10:57 0° 145° (SE) 2,854 6.3 -8.5°
